Weather History for La Porte, IN

Change the Weather History Date:

Saturday, October 20, 2012

  Actual Average (KVPZ) Record (KVPZ)
Temperature  
Mean Temperature 46 °F 51 °F  
Max Temperature 55 °F 61 °F 84 °F (2003)
Min Temperature 36 °F 41 °F 32 °F (2002)
Degree Days  
Heating Degree Days 19 14  
Month to date heating degree days 228  
Since 1 July heating degree days 358  
Cooling Degree Days 0 0  
Month to date cooling degree days 11  
Year to date cooling degree days 713  
Moisture  
Dew Point 39 °F    
Average Humidity 81    
Maximum Humidity 99    
Minimum Humidity 51    
Precipitation  
Precipitation 0.03 in 0.11 in 1.00 in (2011)
Month to date precipitation 2.11  
Year to date precipitation 30.86  
Sea Level Pressure  
Sea Level Pressure 29.80 in    
Wind  
Wind Speed 7 mph ()    
Max Wind Speed 13 mph    
Max Gust Speed 18 mph    
Visibility 9.1 miles    
Events      
T = Trace of Precipitation, MM = Missing Value Source: Averaged Metar Reports

Daily Weather History Graph

Daily Weather History Graph

Search for Another Location

Airport:

Trip Planner

Search our weather history database for the weather conditions in past years. The results will help you decide how hot, cold, wet, or windy it might be!

Date:

Astronomy

Oct. 20, 2012 Rise Set
Actual Time 7:05 AM CDT 5:57 PM CDT
Civil Twilight 6:37 AM CDT 6:25 PM CDT
Nautical Twilight 6:04 AM CDT 6:57 PM CDT
Astronomical Twilight 5:32 AM CDT 7:29 PM CDT
Moon 12:42 PM CDT (10/20) 10:40 PM CDT (10/20)
Length of Visible Light 11h 48m
Length of Day
10h 52m
Waxing Crescent, 34% of the Moon is Illuminated
Oct 20
Waxing Crescent
Oct 21
First Quarter
Oct 29
Full
Nov 6
Last Quarter
Nov 13
New

Hourly Weather History & Observations

Time (CDT) Temp. Windchill Dew Point Humidity Pressure Visibility Wind Dir Wind Speed Gust Speed Precip Events Conditions
12:15 AM 41.5 °F 37.1 °F 40.5 °F 96% 29.63 in 10.0 mi WSW 6.9 mph - N/A   Scattered Clouds
12:35 AM 41.9 °F 36.9 °F 41.0 °F 97% 29.64 in 10.0 mi West 8.1 mph - N/A   Mostly Cloudy
12:55 AM 42.3 °F 36.8 °F 41.4 °F 97% 29.65 in 10.0 mi WSW 9.2 mph - N/A   Mostly Cloudy
1:15 AM 42.8 °F 37.0 °F 41.9 °F 97% 29.64 in 10.0 mi West 10.4 mph - N/A   Mostly Cloudy
1:35 AM 43.0 °F 37.2 °F 41.9 °F 96% 29.65 in 10.0 mi West 10.4 mph 16.1 mph N/A   Mostly Cloudy
1:55 AM 42.4 °F 37.0 °F 41.2 °F 95% 29.65 in 10.0 mi West 9.2 mph - N/A   Overcast
2:15 AM 41.5 °F 35.4 °F 40.3 °F 95% 29.66 in 10.0 mi West 10.4 mph - N/A   Scattered Clouds
2:35 AM 41.0 °F 34.7 °F 40.1 °F 97% 29.66 in 10.0 mi West 10.4 mph - N/A   Clear
2:55 AM 41.2 °F 36.0 °F 40.3 °F 97% 29.67 in 10.0 mi West 8.1 mph - N/A   Scattered Clouds
3:15 AM 41.4 °F 35.2 °F 40.8 °F 98% 29.67 in 10.0 mi West 10.4 mph - N/A   Clear
3:35 AM 41.5 °F 36.4 °F 41.0 °F 98% 29.68 in 7.0 mi West 8.1 mph - N/A   Mostly Cloudy
3:55 AM 41.5 °F 37.1 °F 40.8 °F 97% 29.68 in 10.0 mi West 6.9 mph - N/A   Mostly Cloudy
4:15 AM 41.2 °F 36.6 °F 40.5 °F 97% 29.68 in 7.0 mi WSW 6.9 mph - N/A   Overcast
4:35 AM 40.3 °F 34.9 °F 39.6 °F 97% 29.69 in 7.0 mi WSW 8.1 mph - N/A   Mostly Cloudy
4:55 AM 40.1 °F 35.3 °F 39.2 °F 97% 29.69 in 7.0 mi WSW 6.9 mph - N/A   Scattered Clouds
5:15 AM 39.4 °F 34.5 °F 38.8 °F 98% 29.70 in 7.0 mi WSW 6.9 mph - N/A   Clear
5:35 AM 38.8 °F 34.6 °F 38.3 °F 98% 29.70 in 7.0 mi WSW 5.8 mph - N/A   Clear
5:55 AM 38.3 °F 33.9 °F 37.8 °F 98% 29.70 in 5.0 mi WSW 5.8 mph - N/A   Clear
6:15 AM 37.9 °F 33.5 °F 37.6 °F 99% 29.71 in 5.0 mi WSW 5.8 mph - N/A   Clear
6:35 AM 38.3 °F 33.9 °F 37.8 °F 98% 29.73 in 5.0 mi WSW 5.8 mph - N/A   Mostly Cloudy
6:55 AM 38.3 °F 33.9 °F 37.8 °F 98% 29.74 in 5.0 mi West 5.8 mph - N/A   Mostly Cloudy
7:15 AM 38.3 °F 33.9 °F 37.8 °F 98% 29.74 in 7.0 mi WSW 5.8 mph - N/A   Mostly Cloudy
7:35 AM 38.3 °F 35.9 °F 37.8 °F 98% 29.75 in 7.0 mi West 3.5 mph - N/A   Mostly Cloudy
7:55 AM 38.5 °F 34.1 °F 38.3 °F 99% 29.75 in 7.0 mi WSW 5.8 mph - N/A   Mostly Cloudy
8:15 AM 38.8 °F 35.4 °F 38.5 °F 99% 29.76 in 4.0 mi WSW 4.6 mph - N/A   Overcast
8:35 AM 40.1 °F 36.1 °F 39.7 °F 99% 29.77 in 7.0 mi West 5.8 mph - N/A   Overcast
8:55 AM 41.4 °F 36.8 °F 41.0 °F 99% 29.77 in 7.0 mi West 6.9 mph - N/A   Overcast
9:15 AM 42.3 °F 37.3 °F 41.9 °F 99% 29.78 in 7.0 mi West 8.1 mph - N/A   Overcast
9:35 AM 43.5 °F 38.9 °F 42.4 °F 96% 29.79 in 10.0 mi West 8.1 mph - N/A   Overcast
9:55 AM 45.3 °F 42.3 °F 43.3 °F 93% 29.79 in 10.0 mi WSW 5.8 mph - N/A   Scattered Clouds
10:15 AM 47.7 °F - 44.4 °F 89% 29.79 in 10.0 mi West 10.4 mph - N/A   Scattered Clouds
10:35 AM 49.1 °F - 43.9 °F 82% 29.79 in 10.0 mi West 10.4 mph - N/A   Scattered Clouds
10:55 AM 50.4 °F - 42.6 °F 75% 29.80 in 10.0 mi West 11.5 mph 17.3 mph N/A   Scattered Clouds
11:15 AM 50.9 °F - 42.6 °F 73% 29.80 in 10.0 mi West 8.1 mph - N/A   Scattered Clouds
11:35 AM 50.9 °F - 41.7 °F 71% 29.81 in 10.0 mi WNW 9.2 mph 17.3 mph N/A   Scattered Clouds
11:55 AM 51.3 °F - 41.4 °F 69% 29.81 in 10.0 mi West 12.7 mph 17.3 mph N/A   Scattered Clouds
12:15 PM 52.5 °F - 40.5 °F 64% 29.81 in 10.0 mi West 11.5 mph 17.3 mph N/A   Scattered Clouds
12:35 PM 54.1 °F - 40.6 °F 60% 29.81 in 10.0 mi West 8.1 mph - N/A   Mostly Cloudy
12:55 PM 51.8 °F - 38.8 °F 61% 29.82 in 10.0 mi NW 8.1 mph 18.4 mph N/A   Overcast
1:15 PM 53.2 °F - 38.5 °F 57% 29.82 in 10.0 mi West 9.2 mph - N/A   Mostly Cloudy
1:35 PM 54.0 °F - 38.8 °F 57% 29.82 in 10.0 mi West 8.1 mph - N/A   Overcast
1:55 PM 52.7 °F - 39.4 °F 61% 29.82 in 10.0 mi NW 6.9 mph - N/A   Overcast
2:15 PM 55.0 °F - 39.4 °F 56% 29.82 in 10.0 mi WNW 9.2 mph - N/A   Mostly Cloudy
2:35 PM 53.6 °F - 38.5 °F 57% 29.82 in 10.0 mi WNW 8.1 mph - N/A   Mostly Cloudy
2:55 PM 53.1 °F - 35.6 °F 52% 29.83 in 10.0 mi WNW 6.9 mph - N/A   Scattered Clouds
3:15 PM 55.4 °F - 37.8 °F 52% 29.82 in 10.0 mi West 10.4 mph - N/A   Scattered Clouds
3:35 PM 54.5 °F - 37.4 °F 52% 29.82 in 10.0 mi WNW 5.8 mph - N/A   Scattered Clouds
3:55 PM 54.7 °F - 37.9 °F 53% 29.83 in 10.0 mi West 5.8 mph - N/A   Scattered Clouds
4:15 PM 54.9 °F - 37.0 °F 51% 29.84 in 10.0 mi West 9.2 mph - N/A   Mostly Cloudy
4:35 PM 54.1 °F - 37.8 °F 54% 29.85 in 10.0 mi WSW 8.1 mph - N/A   Overcast
4:55 PM 53.1 °F - 37.8 °F 56% 29.86 in 10.0 mi NW 4.6 mph 16.1 mph N/A   Overcast
5:15 PM 52.7 °F - 37.9 °F 57% 29.87 in 10.0 mi Calm Calm - N/A   Overcast
5:35 PM 52.3 °F - 38.8 °F 60% 29.87 in 10.0 mi Calm Calm - N/A   Overcast
5:55 PM 52.0 °F - 39.7 °F 63% 29.87 in 10.0 mi Calm Calm - N/A   Overcast
6:15 PM 50.9 °F - 40.5 °F 67% 29.88 in 10.0 mi WSW 5.8 mph - N/A   Overcast
6:35 PM 50.4 °F - 39.2 °F 66% 29.88 in 10.0 mi WSW 6.9 mph - N/A   Mostly Cloudy
6:55 PM 48.2 °F - 38.5 °F 69% 29.88 in 10.0 mi WSW 4.6 mph - N/A   Clear
7:15 PM 47.3 °F - 37.9 °F 70% 29.89 in 10.0 mi WSW 4.6 mph - N/A   Clear
7:35 PM 46.0 °F 42.5 °F 37.6 °F 72% 29.90 in 10.0 mi WSW 6.9 mph - N/A   Scattered Clouds
7:55 PM 46.2 °F 42.7 °F 37.4 °F 71% 29.90 in 10.0 mi West 6.9 mph - N/A   Scattered Clouds
8:15 PM 46.9 °F - 37.4 °F 69% 29.91 in 10.0 mi WSW 5.8 mph - N/A   Clear
8:35 PM 45.5 °F 42.5 °F 37.2 °F 73% 29.91 in 10.0 mi WSW 5.8 mph - N/A   Clear
8:55 PM 43.7 °F 40.3 °F 36.7 °F 76% 29.92 in 10.0 mi SW 5.8 mph - N/A   Clear
9:15 PM 43.7 °F 40.3 °F 37.0 °F 77% 29.93 in 10.0 mi SW 5.8 mph - N/A   Clear
9:35 PM 42.4 °F 39.6 °F 36.9 °F 81% 29.93 in 10.0 mi WSW 4.6 mph - N/A   Scattered Clouds
9:55 PM 42.3 °F 39.4 °F 37.4 °F 83% 29.94 in 10.0 mi WSW 4.6 mph - N/A   Clear
10:15 PM 41.9 °F 40.0 °F 37.4 °F 84% 29.94 in 10.0 mi SW 3.5 mph - N/A   Clear
10:35 PM 39.4 °F 37.2 °F 36.3 °F 89% 29.94 in 10.0 mi SW 3.5 mph - N/A   Scattered Clouds
10:55 PM 38.7 °F 36.3 °F 36.0 °F 90% 29.94 in 10.0 mi WSW 3.5 mph - N/A   Scattered Clouds
11:15 PM 38.5 °F - 36.1 °F 91% 29.94 in 10.0 mi Calm Calm - N/A   Scattered Clouds
11:35 PM 39.0 °F - 36.5 °F 91% 29.94 in 10.0 mi Calm Calm - N/A   Scattered Clouds
11:55 PM 36.5 °F - 35.2 °F 95% 29.96 in 10.0 mi Calm Calm - N/A   Scattered Clouds